Milwaukee Timmerman, WI

1:30 AM CDT on March 28, 2017 (GMT -0500)
Timmerman

Weather History for KMWC - February, 2014

Change the Weather History Date:

Thursday, February 13, 2014

  Actual Average Record
Temperature  
Mean Temperature 24 °F -  
Max Temperature 28 °F 32 °F 50 °F (1976)
Min Temperature 21 °F 16 °F -3 °F (1955)
Degree Days  
Heating Degree Days 40    
Moisture  
Dew Point 13 °F    
Average Humidity 66    
Maximum Humidity 86    
Minimum Humidity 40    
Precipitation  
Precipitation 0.00 in - - ()
Sea Level Pressure  
Sea Level Pressure 29.72 in    
Wind  
Wind Speed 7 mph (SSW)    
Max Wind Speed 21 mph    
Max Gust Speed 28 mph    
Visibility 8 miles    
Events Snow    
Averages and records for this station are not official NWS values.
T = Trace of Precipitation, MM = Missing Value Source: NWS Daily Summary

Daily Weather History Graph

Daily Weather History Graph

Search for Another Location

Airport or City:

Trip Planner

Search our weather history database for the weather conditions in past years. The results will help you decide how hot, cold, wet, or windy it might be!

Date:

Astronomy

Feb. 13, 2014 Rise Set
Actual Time 6:52 AM CST 5:20 PM CST
Civil Twilight 6:23 AM CST 5:50 PM CST
Nautical Twilight 5:49 AM CST 6:23 PM CST
Astronomical Twilight 5:16 AM CST 6:56 PM CST
Moon 4:28 PM CST (2/13) 5:46 AM CST (2/13)
Length of Visible Light 11h 26m
Length of Day
10h 28m
Waxing Gibbous, 99% of the Moon is Illuminated
Feb 13
Waxing Gibbous
Feb 14
Full
Feb 22
Last Quarter
Mar 1
New
Mar 8
First Quarter

Hourly Weather History & Observations

Time (CST) Temp. Windchill Dew Point Humidity Pressure Visibility Wind Dir Wind Speed Gust Speed Precip Events Conditions
12:15 AM 21.2 °F 16.4 °F 8.6 °F 58% 30.00 in 10.0 mi WSW 3.5 mph - N/A   Overcast
12:35 AM 21.2 °F 16.4 °F 8.6 °F 58% 29.98 in 10.0 mi SSW 3.5 mph - N/A   Overcast
12:55 AM 21.2 °F 16.4 °F 6.8 °F 54% 29.97 in 10.0 mi SSW 3.5 mph - N/A   Overcast
1:15 AM 21.2 °F 16.4 °F 8.6 °F 58% 29.96 in 10.0 mi South 3.5 mph - N/A   Overcast
1:35 AM 21.2 °F 16.4 °F 8.6 °F 58% 29.95 in 10.0 mi South 3.5 mph - N/A   Overcast
1:55 AM 21.2 °F 13.6 °F 8.6 °F 58% 29.94 in 10.0 mi South 5.8 mph - N/A   Overcast
2:15 AM 21.2 °F 14.9 °F 8.6 °F 58% 29.94 in 10.0 mi South 4.6 mph - N/A   Overcast
2:35 AM 21.2 °F 16.4 °F 8.6 °F 58% 29.94 in 10.0 mi SSW 3.5 mph - N/A   Overcast
2:55 AM 21.2 °F 16.4 °F 10.4 °F 63% 29.95 in 10.0 mi South 3.5 mph - N/A   Overcast
3:15 AM 21.2 °F 14.9 °F 10.4 °F 63% 29.94 in 10.0 mi South 4.6 mph - N/A   Overcast
3:35 AM 21.2 °F 14.9 °F 10.4 °F 63% 29.92 in 10.0 mi South 4.6 mph - N/A   Overcast
3:55 AM 21.2 °F 16.4 °F 10.4 °F 63% 29.91 in 10.0 mi SSE 3.5 mph - N/A   Overcast
4:15 AM 21.2 °F 14.9 °F 10.4 °F 63% 29.91 in 10.0 mi SSE 4.6 mph - N/A   Overcast
4:35 AM 21.2 °F 14.9 °F 10.4 °F 63% 29.90 in 10.0 mi South 4.6 mph - N/A   Overcast
4:55 AM 21.2 °F 14.9 °F 10.4 °F 63% 29.90 in 10.0 mi South 4.6 mph - N/A   Overcast
5:15 AM 21.2 °F 12.6 °F 10.4 °F 63% 29.90 in 10.0 mi South 6.9 mph - N/A   Overcast
5:35 AM 23.0 °F 14.7 °F 10.4 °F 59% 29.89 in 10.0 mi South 6.9 mph - N/A   Overcast
5:55 AM 23.0 °F 14.7 °F 8.6 °F 54% 29.87 in 10.0 mi South 6.9 mph - N/A   Overcast
6:15 AM 23.0 °F 14.7 °F 10.4 °F 59% 29.86 in 10.0 mi SSW 6.9 mph - N/A   Overcast
6:35 AM 23.0 °F 14.7 °F 8.6 °F 54% 29.85 in 10.0 mi South 6.9 mph - N/A   Overcast
8:45 AM 23.0 °F 13.1 °F 6.8 °F 50% 29.78 in 10.0 mi South 9.2 mph - N/A   Overcast
9:45 AM 24.8 °F 12.9 °F 3.2 °F 40% 29.75 in 10.0 mi SSW 13.8 mph - N/A   Mostly Cloudy
10:45 AM 21.2 °F 8.9 °F 10.4 °F 63% 29.74 in 5.0 mi SSW 12.7 mph - N/A Snow Light Snow
11:20 AM 23.0 °F 13.1 °F 10.4 °F 59% 29.70 in 2.0 mi South 9.2 mph 17.3 mph N/A Snow Light Snow
11:45 AM 21.2 °F 10.9 °F 15.8 °F 80% 29.68 in 0.5 mi SSW 9.2 mph - N/A Snow Snow
12:45 PM 21.2 °F 8.9 °F 17.6 °F 86% 29.61 in 5.0 mi South 12.7 mph - N/A Snow Snow
1:45 PM 24.8 °F 13.4 °F 17.6 °F 74% 29.55 in 10.0 mi South 12.7 mph 18.4 mph N/A   Overcast
2:45 PM 26.6 °F 15.2 °F 17.6 °F 69% 29.54 in 10.0 mi South 13.8 mph 18.4 mph N/A   Overcast
3:45 PM 28.4 °F 19.1 °F 17.6 °F 64% 29.52 in 10.0 mi SSW 10.4 mph 18.4 mph N/A   Overcast
4:45 PM 26.6 °F 16.8 °F 17.6 °F 69% 29.51 in 10.0 mi SSW 10.4 mph - N/A   Overcast
5:45 PM 26.6 °F 20.0 °F 17.6 °F 69% 29.50 in 10.0 mi South 5.8 mph - N/A   Mostly Cloudy
6:45 PM 26.6 °F 21.2 °F 17.6 °F 69% 29.49 in 10.0 mi South 4.6 mph - N/A   Overcast
7:50 PM 26.6 °F - 19.4 °F 74% 29.48 in 5.0 mi Calm Calm - N/A Snow Light Snow
8:15 PM 26.6 °F - 21.2 °F 80% 29.48 in 7.0 mi Calm Calm - N/A Snow Light Snow
8:35 PM 26.6 °F 16.8 °F 21.2 °F 80% 29.50 in 7.0 mi WNW 10.4 mph - N/A   Overcast
8:45 PM 26.6 °F 16.2 °F 21.2 °F 80% 29.50 in 7.0 mi NW 11.5 mph 21.9 mph N/A   Overcast
8:55 PM 26.6 °F 12.7 °F 19.4 °F 74% 29.50 in 7.0 mi WNW 20.7 mph 25.3 mph N/A   Overcast
9:15 PM 26.6 °F 14.3 °F 17.6 °F 69% 29.51 in 7.0 mi WNW 16.1 mph 23.0 mph N/A   Overcast
9:35 PM 24.8 °F 10.3 °F 17.6 °F 74% 29.52 in 5.0 mi WNW 20.7 mph 27.6 mph N/A   Haze
9:55 PM 23.0 °F 8.0 °F 17.6 °F 80% 29.53 in 5.0 mi West 20.7 mph 27.6 mph N/A   Haze
10:15 PM 23.0 °F 11.1 °F 17.6 °F 80% 29.53 in 7.0 mi WNW 12.7 mph 21.9 mph N/A   Overcast
10:35 PM 23.0 °F 8.3 °F 17.6 °F 80% 29.53 in 7.0 mi West 19.6 mph 23.0 mph N/A   Overcast
10:55 PM 23.0 °F 9.6 °F 15.8 °F 74% 29.53 in 5.0 mi WNW 16.1 mph 27.6 mph N/A   Haze
11:15 PM 23.0 °F 8.3 °F 15.8 °F 74% 29.53 in 7.0 mi WNW 19.6 mph 24.2 mph N/A   Overcast
11:35 PM 21.2 °F 6.4 °F 15.8 °F 80% 29.54 in 7.0 mi WNW 18.4 mph 24.2 mph N/A   Overcast
11:55 PM 21.2 °F 8.9 °F 14.0 °F 74% 29.54 in 7.0 mi WNW 12.7 mph 20.7 mph N/A   Overcast